DELTA 1 DEB, 21523

Orbit data source: Space-Track

DELTA 1 DEB, 21523 is space debris in SSO originally from a launch on Thu, 12 Jun 1975 UTC launched from the Air Force Western Test Range (AFWTR). Debris objects in space refer to the collection of defunct objects orbiting the Earth. Examples of debris include non-operational satellites, rocket bodies, and fragments generated from explosions, collisions, or faulty payload assembly.

Loading next visibility...
Identifier
21523, 1975-052GU
Orbit
SSO
Country
Flag of USUS
Related business
Manufacturer
Unknown
Mission
Spacecraft
Bus & Motor
Unknown
Mass
Unknown
Launch date (UTC)
1975-06-12 (51 years ago)
Launch vehicle
Unknown
Launch site
Air Force Western Test Range (AFWTR)
Object type
Payload
Rocket body
Debris
Shape & HBR
Unknown shape, 1.1 m
Radar Cross Section
Medium (>0.1 m² and <1 m²)

Expand to show TLE details & history
Last TLE update: 3 days ago

TLE from 3 days ago
0 DELTA 1 DEB
1 21523U 75052GU  26170.99013749  .00000253  00000-0  14735-2 0  9992
2 21523  99.5602 194.6740 0716571  91.7090 304.6517 12.06106331507359
Epoch: 2026-06-19T23:45Z
TLE epoch observation values (Epoch: 2026-06-19T23:45:47.879Z)
Latitude
28.86243°
Longitude
-75.28641°
Altitude
1,359.296 km
Speed
7.313 km/s
True Right ascension
12h 37m 29s
True Declination
28° 43' 43"
Sunlit
Object was in daylight at epoch
Visualization orbit readout
Latitude
Unknown
Longitude
Unknown
Altitude
Unknown
Speed
Unknown
Apparent Right ascension
Unknown
Apparent Declination
Unknown
Sunlit
N/A
Visualization observer readout
Local Sidereal Time
23:26:57
Azimuth
Unknown
Elevation
Unknown
Doppler factor
Unknown
Orbital elements
Apogee altitude
2,226.46 km
Perigee altitude
1,075.755 km
Semi-major axis
8,029.245 km
Eccentricity
0.07166
Inclination
99.5602°
RAAN
194.674°
Arg. of periapsis
91.709°
True anomaly
297.55356°
Mean anomaly
304.6517°
Eccentric anomaly
301.13756°
Mean motion
3.01669 °/min
Orbital period
119.34 mins
BSTAR
0.0014735
Loading maneuver chart data...
Computing Atmospheric mass density...
Loading historical data...
Loading historical data...
Loading historical data...
Loading historical data...
Loading historical data...
Loading historical data...
Loading historical data...

Documentation

Showing up to 5 results
|